Content
SEND FEEDBACK

Daily
Averages
Monthly
Summary
United States of America

UMATAC, GUAM


Home > North America > United States > Guam
Elevation: 190 feet     Latitude: 13 17N     Longitude: 144 40E

WEATHER
 
SELECT A DAY
Number of Records: 342,166;   Date Range: 1/1/95 - 8/12/14
 
SHARE

PRINT THIS DATA

[ ← Previous Day ]
WEATHER ALMANAC - SEPTEMBER 25, 2013
[ Next Day → ]
[ °C ]   °F
Weather ElementAverageHighLow
Temperature82.2 °F87.8 °F (1:25 pm)72.7 °F (2:58 am)
Dewpoint76 °F78.8 °F (9:48 am)71.4 °F (3:58 pm)
Humidity81.9 %96 % (12:58 am)70 % (12:56 pm)
Barometer29.75 in29.85 in (9:43 am)29.65 in (12:58 pm)
Wind Speed10 mph15 mph (3:18 pm)
Wind Gust19.6 mph (12:30 pm)
Weather ElementAverage
Visibility9.9 mi
Wind DirectionSW (230.2 °)

Weather ElementTotal
Precipitation---
Cooling Degree Days15.3 (Base 65)
Growing Degree Days30.3 (Base 50)
Averaged from 47 records on September 25, 2013
WEATHER CONDITIONS BREAKOUT
WIND DIRECTION BREAKOUT
WEATHER BY HOUR - SEPTEMBER 25, 2013
[ °C ]   °F
Local TimeTemperatureDewpointHumidityBarometerVisibilityWind DirectionWind SpeedGust SpeedPrecipitationEventsConditions
12:16 AM73.4 °F71.6 °F94 %29.82 in8.0 miSSW (210°)5.8 mphScattered Clouds
12:58 AM76.8 °F75.7 °F96 %29.69 in10.0 miSW (220°)8.1 mph0.00 inPartly Cloudy
1:58 AM75.9 °F74.7 °F96 %29.68 in10.0 miSSW (210°)8.1 mphScattered Clouds
2:58 AM72.7 °F71.6 °F96 %29.68 in10.0 miSSW (210°)4.6 mphClear
3:58 AM75.2 °F73.9 °F96 %29.69 in10.0 miSW (220°)6.9 mphClear
4:58 AM76.1 °F74.7 °F95 %29.69 in10.0 miSSW (210°)6.9 mphClear
5:58 AM78.1 °F76.8 °F96 %29.69 in10.0 miSSW (210°)5.8 mphClear
6:58 AM78.3 °F77.2 °F96 %29.71 in10.0 miSSW (200°)5.8 mphClear
7:58 AM82.6 °F77.9 °F86 %29.73 in10.0 miSSW (210°)8.1 mphPartly Cloudy
8:58 AM82.8 °F77.9 °F85 %29.74 in10.0 miWSW (240°)11.5 mphMostly Cloudy
9:43 AM84.2 °F77.0 °F79 %29.85 in10.0 miSW (230°)10.4 mphMostly Cloudy
9:48 AM86.0 °F78.8 °F79 %29.85 in10.0 miSSW (210°)10.4 mphMostly Cloudy
9:53 AM86.0 °F78.8 °F79 %29.85 in10.0 miSW (220°)12.7 mphMostly Cloudy
9:58 AM85.8 °F77.9 °F77 %29.73 in10.0 miSW (230°)12.7 mphScattered Clouds
10:43 AM82.4 °F75.2 °F79 %29.83 in10.0 miSouth (180°)12.7 mphMostly Cloudy
10:58 AM82.8 °F75.9 °F80 %29.71 in10.0 miSSW (210°)10.4 mphMostly Cloudy
11:08 AM82.4 °F75.2 °F79 %29.83 in10.0 miSSW (210°)8.1 mphMostly Cloudy
11:18 AM82.4 °F75.2 °F79 %29.82 in10.0 miSouth (190°)10.4 mphMostly Cloudy
11:58 AM83.5 °F75.6 °F77 %29.69 in10.0 miSouth (190°)13.8 mphScattered Clouds
12:30 PM86.0 °F78.8 °F79 %29.79 in10.0 miSW (220°)12.7 mph19.6 mphRainLight Rain
12:46 PM84.2 °F77.0 °F79 %29.78 in10.0 miSSW (210°)11.5 mphMostly Cloudy
12:51 PM84.2 °F75.2 °F74 %29.78 in10.0 miSSW (210°)12.7 mphMostly Cloudy
12:56 PM86.0 °F75.2 °F70 %29.78 in10.0 miWSW (250°)12.7 mph19.6 mphMostly Cloudy
12:58 PM84.9 °F75.7 °F74 %29.65 in10.0 miWSW (240°)11.5 mph19.6 mph0.00 inMostly Cloudy
1:03 PM86.0 °F75.2 °F70 %29.78 in10.0 miWSW (250°)12.7 mph19.6 mphMostly Cloudy
1:05 PM86.0 °F75.2 °F70 %29.78 in10.0 miWest (270°)12.7 mphMostly Cloudy
1:10 PM86.0 °F75.2 °F70 %29.78 in10.0 miSW (230°)13.8 mphMostly Cloudy
1:20 PM86.0 °F77.0 °F74 %29.78 in10.0 miWSW (250°)10.4 mphMostly Cloudy
1:25 PM87.8 °F77.0 °F70 %29.78 in10.0 miWest (260°)12.7 mphMostly Cloudy
1:40 PM86.0 °F78.8 °F79 %29.77 in10.0 miWSW (240°)11.5 mphMostly Cloudy
1:58 PM87.1 °F78.1 °F74 %29.65 in10.0 miSouth (190°)12.7 mphScattered Clouds
2:28 PM87.8 °F78.8 °F75 %29.78 in10.0 miSW (220°)10.4 mphMostly Cloudy
2:33 PM86.0 °F75.2 °F70 %29.78 in10.0 miWest (260°)11.5 mphMostly Cloudy
2:48 PM84.2 °F77.0 °F79 %29.78 in10.0 miSW (230°)12.7 mphOvercast
2:54 PM82.4 °F75.2 °F79 %29.78 in10.0 miSSW (210°)12.7 mphOvercast
2:58 PM80.2 °F74.5 °F83 %29.66 in7.0 miSW (220°)10.4 mphOvercast
3:18 PM80.6 °F71.6 °F74 %29.79 in10.0 miWest (270°)15.0 mphMostly Cloudy
3:33 PM86.0 °F77.0 °F74 %29.79 in10.0 miWest (280°)11.5 mphScattered Clouds
3:58 PM80.2 °F71.4 °F74 %29.67 in10.0 miWest (270°)12.7 mphPartly Cloudy
4:58 PM84.4 °F76.3 °F77 %29.69 in10.0 miWSW (250°)11.5 mphClear
5:58 PM82.6 °F77.5 °F85 %29.71 in10.0 miWest (260°)9.2 mphScattered Clouds
6:58 PM81.0 °F77.4 °F89 %29.74 in10.0 miWSW (250°)8.1 mphPartly Cloudy
7:58 PM80.1 °F77.4 °F91 %29.75 in10.0 miWSW (250°)6.9 mphClear
8:58 PM79.7 °F77.4 °F93 %29.76 in10.0 miWSW (240°)5.8 mphMostly Cloudy
9:58 PM79.5 °F77.4 °F93 %29.77 in10.0 miWest (270°)3.5 mphClear
10:58 PM79.2 °F76.8 °F92 %29.77 in10.0 miWSW (250°)2.3 mphClear
11:58 PM73.9 °F72.1 °F94 %29.75 in10.0 miWest (260°)4.6 mphPartly Cloudy
Hourly data recorded from PGUA, located miles away from Umatac, Guam







STORIES FROM OUR PARTNERS